Location: STAR School
(35.3054°N, 111.2976°W)
Time: 19:35:46
(UTC-07:00)

deb Explorer IX - Pass Details

Date: 27 May 2019
Orbit: 537 x 1115 km, 38.8° (Epoch: 16 June)

Event Time Altitude Azimuth Distance (km) Brightness Sun altitude
Exits shadow 04:13:15 - 287° (WNW) 2,367 ? -11.3°
Reaches altitude 10° 04:14:42 10° 289° (WNW) 1,787 ? -11.1°
Maximum altitude 04:18:43 68° 13° (NNE) 600 ? -10.4°
Drops below altitude 10° 04:23:03 10° 97° (E) 1,922 ? -9.7°
Sets 04:25:29 0° 100° (E) 2,897 ? -9.3°
